LB7PJ Weather Reports


time (UTC)temp
C
wind
direction
speed
KPH
gust
KPH
rain 1hr
cm
rain 24hr
cm
rain mn
cm
humidity
%
barometer
mb
20260902113002 15 229 9.7 0.0 0.00 0.00 0.00 50 1006.1
20260902111502 15 229 9.7 0.0 0.00 0.00 0.00 50 1006.1
20260902110003 15 229 9.7 0.0 0.00 0.00 0.00 50 1006.1
20260902104502 15 229 9.7 0.0 0.00 0.00 0.00 50 1006.1
20260902103002 15 229 9.7 0.0 0.00 0.00 0.00 50 1006.1
20260902101502 13 216 9.7 0.0 0.00 0.00 0.00 55 1006.7
20260902100002 13 216 9.7 0.0 0.00 0.00 0.00 55 1006.7
20260902094502 13 198 4.8 0.0 0.00 0.00 0.00 60 1006.7
20260902093002 11 198 4.8 0.0 0.00 0.00 0.00 60 1006.7
20260902091502 11 198 4.8 0.0 0.00 0.00 0.00 60 1006.7
20260902090002 11 198 4.8 0.0 0.00 0.00 0.00 60 1006.7
20260902084502 11 198 4.8 0.0 0.00 0.00 0.00 60 1006.7
20260902083002 11 198 4.8 0.0 0.00 0.00 0.00 60 1006.7
20260902081502 10 220 4.8 0.0 0.00 0.00 0.00 64 1006.7
20260902080001 10 220 4.8 0.0 0.00 0.00 0.00 64 1006.7
20260902074502 10 220 4.8 0.0 0.00 0.00 0.00 64 1006.7
20260902073001 8 254 3.2 0.0 0.00 0.00 0.00 73 1006.7
20260902071502 8 254 3.2 0.0 0.00 0.00 0.00 73 1006.7
20260902070002 8 254 3.2 0.0 0.00 0.00 0.00 76 1006.7
20260902064502 8 254 3.2 0.0 0.00 0.00 0.00 76 1006.7
20260902063002 8 254 3.2 0.0 0.00 0.00 0.00 76 1006.7
20260902061502 7 268 4.8 0.0 0.00 0.00 0.00 82 1006.1
20260902060001 7 268 4.8 0.0 0.00 0.00 0.00 82 1006.1
20260902054502 7 268 4.8 0.0 0.00 0.00 0.00 82 1006.1
20260902053002 8 272 4.8 0.0 0.00 0.00 0.00 85 1006.1
20260902051502 8 272 4.8 0.0 0.00 0.00 0.00 85 1006.1
20260902050002 8 272 4.8 0.0 0.00 0.00 0.00 85 1006.1
20260902044502 8 272 4.8 0.0 0.00 0.00 0.00 85 1006.1
20260902043002 8 272 4.8 0.0 0.00 0.00 0.00 85 1006.1
20260902041502 8 274 4.8 0.0 0.00 0.00 0.00 85 1005.4
20260902040002 8 274 4.8 0.0 0.00 0.00 0.00 85 1005.4
20260902034502 8 274 4.8 0.0 0.00 0.00 0.00 85 1005.4
20260902033002 10 256 4.8 0.0 0.00 0.00 0.00 77 1006.1
20260902031501 10 256 4.8 0.0 0.00 0.00 0.00 77 1006.1
20260902030002 10 256 4.8 0.0 0.00 0.00 0.00 77 1006.1
20260902024501 10 256 4.8 0.0 0.00 0.00 0.00 77 1006.1
20260902023002 10 256 4.8 0.0 0.00 0.00 0.00 77 1006.1
20260902021501 10 266 4.8 0.0 0.00 0.00 0.00 73 1006.1
20260902020002 10 266 4.8 0.0 0.00 0.00 0.00 73 1006.1
20260902014501 10 266 4.8 0.0 0.00 0.00 0.00 73 1006.1
20260902013002 10 272 4.8 0.0 0.00 0.00 0.00 73 1006.1
20260902011501 10 272 4.8 0.0 0.00 0.00 0.00 73 1006.1
20260902010002 10 268 4.8 0.0 0.00 0.00 0.00 73 1006.1
20260902004501 10 268 4.8 0.0 0.00 0.00 0.00 72 1006.1
20260902003002 10 268 4.8 0.0 0.00 0.00 0.00 72 1006.1
20260902001501 10 280 4.8 0.0 0.00 0.00 0.00 74 1006.1
20260902000003 10 280 4.8 0.0 0.00 0.00 0.00 74 1006.1
20260901234502 10 280 4.8 0.0 0.00 0.00 0.00 74 1006.1
20260901233003 11 284 4.8 0.0 0.00 0.00 0.00 78 1006.1
20260901231502 11 284 4.8 0.0 0.00 0.00 0.00 78 1006.1
20260901230002 11 284 4.8 0.0 0.00 0.00 0.00 78 1006.1
20260901224502 11 284 4.8 0.0 0.00 0.00 0.00 78 1006.1
20260901223002 11 284 4.8 0.0 0.00 0.00 0.00 78 1006.1
20260901221502 12 289 6.4 0.0 0.00 0.00 0.00 89 1006.1
20260901220001 12 289 6.4 0.0 0.00 0.00 0.00 89 1006.1
20260901214502 12 289 6.4 0.0 0.00 0.00 0.00 89 1006.1
20260901213002 12 280 4.8 0.0 0.00 0.00 0.00 96 1006.1
20260901211502 12 280 4.8 0.0 0.00 0.00 0.00 96 1006.1
20260901210002 12 280 4.8 0.0 0.00 0.00 0.00 96 1006.1
20260901204502 12 280 4.8 0.0 0.00 0.00 0.00 96 1006.1
20260901203001 12 280 4.8 0.0 0.00 0.00 0.00 96 1006.1
20260901201502 13 280 3.2 0.0 0.00 0.00 0.00 92 1006.1
20260901200002 13 280 3.2 0.0 0.00 0.00 0.00 92 1006.1
20260901194502 13 280 3.2 0.0 0.00 0.00 0.00 92 1006.1
20260901193001 13 218 4.8 0.0 0.00 0.00 0.00 84 1006.1
20260901191502 13 218 4.8 0.0 0.00 0.00 0.00 84 1006.1
20260901190002 14 205 4.8 0.0 0.00 0.00 0.00 82 1006.1
20260901184502 14 205 4.8 0.0 0.00 0.00 0.00 82 1006.1
20260901183002 14 205 4.8 0.0 0.00 0.00 0.00 82 1006.1
20260901181502 15 150 1.6 0.0 0.00 0.00 0.00 81 1006.1
20260901180002 15 150 1.6 0.0 0.00 0.00 0.00 81 1006.1
20260901174502 15 150 1.6 0.0 0.00 0.00 0.00 81 1006.1
20260901173002 15 128 3.2 0.0 0.00 0.00 0.00 75 1006.7
20260901171501 15 128 3.2 0.0 0.00 0.00 0.00 75 1006.7
20260901170002 16 128 3.2 0.0 0.00 0.00 0.00 75 1006.7
20260901164501 16 128 3.2 0.0 0.00 0.00 0.00 75 1006.7
20260901163002 16 128 3.2 0.0 0.00 0.00 0.00 75 1006.7
20260901161501 17 130 6.4 0.0 0.00 0.00 0.00 67 1006.7
20260901160002 17 130 6.4 0.0 0.00 0.00 0.00 67 1006.7
20260901154501 17 130 6.4 0.0 0.00 0.00 0.00 67 1006.7
20260901153002 19 126 4.8 0.0 0.00 0.00 0.00 62 1006.7
20260901151502 19 126 4.8 0.0 0.00 0.00 0.00 62 1006.7
20260901150002 18 126 4.8 0.0 0.00 0.00 0.00 62 1006.7
20260901144501 18 126 4.8 0.0 0.00 0.00 0.00 62 1006.7
20260901143002 18 126 4.8 0.0 0.00 0.00 0.00 62 1006.7
20260901141501 18 128 4.8 0.0 0.00 0.00 0.00 60 1007.4
20260901140002 18 128 4.8 0.0 0.00 0.00 0.00 60 1007.4
20260901134502 17 122 4.8 0.0 0.00 0.00 0.00 64 1007.4
20260901133002 17 122 4.8 0.0 0.00 0.00 0.00 64 1007.4
20260901131502 17 122 4.8 0.0 0.00 0.00 0.00 64 1007.4
20260901130002 17 118 4.8 0.0 0.00 0.00 0.00 63 1008.0
20260901124502 17 118 4.8 0.0 0.00 0.00 0.00 63 1008.0
20260901123001 17 118 4.8 0.0 0.00 0.00 0.00 63 1008.0
20260901121502 16 120 4.8 0.0 0.00 0.00 0.00 67 1008.0
20260901120001 16 120 4.8 0.0 0.00 0.00 0.00 67 1008.0
20260901114502 16 114 4.8 0.0 0.00 0.00 0.00 70 1008.6